FW1564 Weather Reports


time (UTC)temp
C
wind
direction
speed
KPH
gust
KPH
rain 1hr
cm
rain 24hr
cm
rain mn
cm
humidity
%
barometer
mb
20260903031734 18 336 3.2 6.4 0.00 0.00 0.00 85 1018.9
20260903030734 18 349 3.2 4.8 0.00 0.00 0.00 84 1019.1
20260903025734 18 350 1.6 4.8 0.00 0.00 0.00 84 1019.1
20260903024734 18 347 3.2 6.4 0.00 0.00 0.00 83 1019.0
20260903023734 18 345 3.2 6.4 0.00 0.00 0.00 83 1019.0
20260903022733 18 1 6.4 6.4 0.00 0.00 0.00 83 1019.1
20260903021734 18 14 3.2 4.8 0.00 0.00 0.00 84 1019.1
20260903021120 18 337 3.2 9.7 0.00 0.00 0.00 84 1019.1
20260903020757 18 343 3.2 6.4 0.00 0.00 0.00 83 1019.4
20260903014734 18 343 4.8 9.7 0.00 0.00 0.00 83 1019.2
20260903013734 18 337 4.8 6.4 0.00 0.00 0.00 87 1019.4
20260903012733 18 356 4.8 6.4 0.00 0.00 0.00 87 1019.6
20260903011735 18 3 3.2 4.8 0.00 0.00 0.00 87 1019.6
20260903010734 18 342 3.2 6.4 0.00 0.00 0.00 87 1019.7
20260903005734 18 342 3.2 6.4 0.00 0.00 0.00 87 1019.5
20260903004733 18 342 3.2 6.4 0.00 0.00 0.00 86 1019.8
20260903003734 18 346 4.8 9.7 0.00 0.00 0.00 85 1019.8
20260903002734 18 338 6.4 9.7 0.00 0.00 0.00 86 1020.0
20260903001734 19 339 4.8 6.4 0.00 0.00 0.00 87 1020.2
20260903000734 19 342 3.2 4.8 0.00 0.00 0.00 86 1020.0
20260902235733 19 9 1.6 4.8 0.00 0.00 0.00 86 1019.9
20260902234734 19 334 3.2 9.7 0.00 0.00 0.00 86 1020.0
20260902234210 19 4 4.8 11.3 0.00 0.00 0.00 86 1020.3
20260902232734 19 336 3.2 9.7 0.00 0.00 0.00 86 1020.1
20260902231734 19 344 3.2 6.4 0.00 0.00 0.00 87 1020.3
20260902231213 19 346 4.8 9.7 0.00 0.00 0.00 87 1020.2
20260902225734 19 11 4.8 9.7 0.00 0.00 0.00 86 1020.2
20260902224733 20 9 4.8 6.4 0.00 0.00 0.00 87 1020.3
20260902223734 20 334 3.2 6.4 0.00 0.00 0.00 87 1020.6
20260902222734 20 20 3.2 4.8 0.00 0.00 0.00 86 1020.7
20260902221735 20 337 1.6 3.2 0.00 0.00 0.00 86 1020.5
20260902220733 20 332 0.0 3.2 0.00 0.00 0.00 87 1020.6
20260902220649 19 340 3.2 3.2 0.00 0.00 0.00 85 1020.6
20260902214736 19 333 1.6 4.8 0.00 0.00 0.00 87 1020.4
20260902213734 19 344 1.6 4.8 0.00 0.00 0.00 86 1020.2
20260902212734 19 346 3.2 4.8 0.00 0.00 0.00 86 1020.3
20260902211734 19 333 3.2 4.8 0.00 0.00 0.00 87 1020.1
20260902210733 19 341 0.0 4.8 0.00 0.00 0.00 85 1019.8
20260902205735 19 350 1.6 4.8 0.00 0.00 0.00 86 1019.8
20260902204734 19 348 3.2 4.8 0.00 0.00 0.00 88 1019.7
20260902203734 20 337 1.6 4.8 0.00 0.00 0.00 87 1019.8
20260902203215 20 48 0.0 3.2 0.00 0.00 0.00 88 1019.7
20260902201733 20 338 3.2 4.8 0.00 0.00 0.00 86 1019.5
20260902200733 20 339 0.0 3.2 0.00 0.00 0.00 87 1019.5
20260902195734 20 338 3.2 3.2 0.00 0.00 0.00 86 1019.6
20260902195211 20 333 0.0 4.8 0.00 0.00 0.00 86 1019.4
20260902194224 20 353 3.2 4.8 0.00 0.00 0.00 86 1019.2
20260902193213 20 343 3.2 3.2 0.00 0.00 0.00 88 1019.2
20260902191734 20 357 3.2 3.2 0.00 0.00 0.00 88 1019.1
20260902190734 21 320 0.0 3.2 0.00 0.00 0.00 88 1019.4
20260902185735 21 113 0.0 3.2 0.00 0.00 0.00 88 1019.5
20260902185221 21 227 1.6 3.2 0.00 0.00 0.00 87 1019.5
20260902184209 21 131 1.6 4.8 0.00 0.00 0.00 87 1019.4
20260902182735 21 154 0.0 4.8 0.00 0.00 0.00 86 1019.6
20260902181734 21 181 0.0 4.8 0.00 0.00 0.00 86 1019.5
20260902180735 21 140 1.6 9.7 0.00 0.00 0.00 86 1019.5
20260902175735 22 148 1.6 6.4 0.00 0.00 0.00 86 1019.5
20260902174734 21 63 0.0 9.7 0.00 0.00 0.00 87 1019.8
20260902173734 21 190 3.2 9.7 0.00 0.00 0.00 87 1019.8
20260902172734 21 88 6.4 9.7 0.00 0.00 0.00 86 1019.8
20260902171734 21 109 1.6 9.7 0.00 0.00 0.00 86 1019.7
20260902170734 21 90 4.8 6.4 0.00 0.00 0.00 86 1019.7
20260902165734 21 112 4.8 9.7 0.00 0.00 0.00 86 1019.8
20260902165220 22 128 1.6 11.3 0.00 0.00 0.00 86 1020.1
20260902164649 22 84 4.8 11.3 0.00 0.00 0.00 85 1020.0
20260902162734 22 135 8.0 9.7 0.00 0.00 0.00 84 1019.9
20260902161734 22 136 8.0 11.3 0.00 0.00 0.00 84 1019.9
20260902161216 22 135 6.4 9.7 0.00 0.00 0.00 85 1020.1
20260902155734 22 131 1.6 9.7 0.00 0.00 0.00 85 1020.2
20260902155702 22 194 3.2 9.7 0.00 0.00 0.00 83 1020.5
20260902153733 22 184 4.8 11.3 0.00 0.00 0.00 82 1020.4
20260902152734 22 98 3.2 12.9 0.00 0.00 0.00 83 1020.4
20260902151734 22 161 3.2 11.3 0.00 0.00 0.00 83 1020.4
20260902150737 22 119 6.4 9.7 0.00 0.00 0.00 82 1020.6
20260902145736 22 54 3.2 11.3 0.00 0.00 0.00 82 1020.5
20260902144735 22 167 11.3 12.9 0.00 0.00 0.00 81 1020.7
20260902143734 22 152 1.6 12.9 0.00 0.00 0.00 81 1020.7
20260902142734 22 114 6.4 11.3 0.00 0.00 0.00 82 1020.9
20260902141733 22 197 9.7 11.3 0.00 0.00 0.00 80 1020.8
20260902140734 22 150 6.4 12.9 0.00 0.00 0.00 79 1021.0
20260902135734 23 133 8.0 14.5 0.00 0.00 0.00 79 1020.9
20260902135211 23 205 6.4 14.5 0.00 0.00 0.00 76 1021.1
20260902133734 24 153 4.8 16.1 0.00 0.00 0.00 75 1020.9
20260902132734 25 117 8.0 17.7 0.00 0.00 0.00 73 1020.9
20260902132251 25 129 11.3 16.1 0.00 0.00 0.00 74 1020.8
20260902132155 24 180 6.4 14.5 0.00 0.00 0.00 74 1020.8
20260902125734 24 101 1.6 16.1 0.00 0.00 0.00 75 1020.8
20260902124735 24 69 3.2 14.5 0.00 0.00 0.00 75 1020.8
20260902123734 24 125 8.0 20.9 0.00 0.00 0.00 75 1021.1
20260902123212 24 97 4.8 20.9 0.00 0.00 0.00 74 1021.1
20260902121734 24 155 9.7 14.5 0.00 0.00 0.00 71 1021.1
20260902121216 24 161 6.4 14.5 0.00 0.00 0.00 73 1021.0
20260902115734 23 111 8.0 16.1 0.00 0.00 0.00 74 1021.0
20260902114734 24 102 8.0 14.5 0.00 0.00 0.00 71 1021.1
20260902113734 24 90 11.3 12.9 0.00 0.00 0.00 72 1021.2
20260902112734 25 149 4.8 12.9 0.00 0.00 0.00 70 1021.2
20260902111734 24 139 9.7 12.9 0.00 0.00 0.00 70 1021.2
20260902110734 24 124 9.7 12.9 0.00 0.00 0.00 72 1021.1
20260902105734 24 106 9.7 11.3 0.00 0.00 0.00 70 1021.2
20260902104733 24 82 8.0 14.5 0.00 0.00 0.00 70 1021.3
20260902103734 23 185 6.4 11.3 0.00 0.00 0.00 72 1021.3
20260902102734 23 148 6.4 11.3 0.00 0.00 0.00 72 1021.2
20260902101734 23 121 4.8 11.3 0.00 0.00 0.00 71 1020.8
20260902100734 23 160 4.8 12.9 0.00 0.00 0.00 70 1020.9
20260902100213 23 138 8.0 11.3 0.00 0.00 0.00 71 1021.0
20260902094733 23 175 4.8 11.3 0.00 0.00 0.00 72 1021.1
20260902093734 23 135 8.0 11.3 0.00 0.00 0.00 69 1020.9
20260902092734 24 247 1.6 4.8 0.00 0.00 0.00 66 1020.8
20260902091734 23 67 0.0 3.2 0.00 0.00 0.00 69 1020.8
20260902090734 22 40 1.6 3.2 0.00 0.00 0.00 72 1020.8
20260902085734 20 7 1.6 4.8 0.00 0.00 0.00 76 1020.8
20260902084733 20 11 4.8 4.8 0.00 0.00 0.00 76 1020.8
20260902083734 20 10 4.8 6.4 0.00 0.00 0.00 76 1021.0
20260902082734 19 10 3.2 6.4 0.00 0.00 0.00 74 1020.9
20260902081735 19 352 4.8 9.7 0.00 0.00 0.00 73 1020.8
20260902080734 18 341 4.8 9.7 0.00 0.00 0.00 72 1020.6
20260902080209 18 324 3.2 6.4 0.00 0.00 0.00 71 1020.7
20260902074710 18 340 4.8 9.7 0.00 0.00 0.00 69 1020.3
20260902073710 18 333 6.4 6.4 0.00 0.00 0.00 70 1020.4
20260902072710 17 349 4.8 9.7 0.00 0.00 0.00 69 1020.2
20260902071710 18 18 4.8 9.7 0.00 0.00 0.00 71 1020.2
20260902070710 18 337 4.8 9.7 0.00 0.00 0.00 74 1020.1
20260902070145 18 337 4.8 6.4 0.00 0.00 0.00 77 1020.3
20260902064710 17 333 6.4 9.7 0.00 0.00 0.00 78 1020.3
20260902063710 17 352 6.4 9.7 0.00 0.00 0.00 77 1020.1
20260902062711 17 328 4.8 11.3 0.00 0.00 0.00 75 1020.1
20260902062628 17 344 6.4 9.7 0.00 0.00 0.00 79 1020.0
20260902060713 18 348 6.4 6.4 0.00 0.00 0.00 81 1020.1
20260902055710 18 353 4.8 9.7 0.00 0.00 0.00 82 1019.9
20260902054710 17 343 6.4 9.7 0.00 0.00 0.00 83 1019.9
20260902053710 17 348 4.8 6.4 0.00 0.00 0.00 82 1019.9
20260902052710 17 334 4.8 6.4 0.00 0.00 0.00 81 1020.1
20260902051711 18 5 6.4 9.7 0.00 0.00 0.00 79 1019.9
20260902050710 18 359 3.2 9.7 0.00 0.00 0.00 78 1019.7
20260902045710 18 343 6.4 11.3 0.00 0.00 0.00 76 1019.7
20260902044710 18 351 6.4 12.9 0.00 0.00 0.00 77 1019.7
20260902043710 18 337 4.8 9.7 0.00 0.00 0.00 80 1019.7
20260902042710 17 337 6.4 9.7 0.00 0.00 0.00 80 1019.9
20260902042159 18 337 4.8 6.4 0.00 0.00 0.00 76 1019.9
20260902040712 18 349 4.8 9.7 0.00 0.00 0.00 77 1019.9
20260902035710 18 343 6.4 12.9 0.00 0.00 0.00 76 1019.9
20260902034710 18 352 6.4 12.9 0.00 0.00 0.00 77 1019.9